Location: Unspecified
(0.0000°N, 0.0000°E)
Time: 10:40:50
(UTC+00:00)

IBEX - Pass Details

Date: 30 May 2019
Orbit: 43050 x 333428 km, 30.2° (Epoch: 06 August)

Event Time Altitude Azimuth Distance (km) Brightness Sun altitude
Rises 00:36:26 0° 119° (ESE) 119,514 ? -66.3°
Reaches altitude 10° 01:35:09 10° 120° (ESE) 113,111 ? -57.8°
Maximum altitude 14:30:38 67° 256° (WSW) 43,996 ? 46.8°
Drops below altitude 10° 01:23:19 10° 301° (WNW) 92,506 ? -59.8°
Sets 02:31:48 0° 299° (WNW) 100,139 ? -46.5°
